This is the latest recevied weather packets stored in our database for station/object OK1KZE-6. If no packets are shown the sender has not sent any weather packets the latest 10 day(s).
| Time | Temp. | Humidity | Pressure | Rain* | Wind** | Luminosity | Snow |
|---|---|---|---|---|---|---|---|
| 1777461009 | 10.56° C | 36% | 1026.7 hPa | - | - | - | - |
| 1777460708 | 11.67° C | 35% | 1026.4 hPa | - | - | - | - |
| 1777460407 | 11.67° C | 35% | 1026.6 hPa | - | - | - | - |
| 1777460108 | 10.56° C | 37% | 1026.8 hPa | - | - | - | - |
| 1777459809 | 10.56° C | 36% | 1026.8 hPa | - | - | - | - |
| 1777459508 | 10.56° C | 37% | 1026.5 hPa | - | - | - | - |
| 1777459208 | 10.56° C | 36% | 1026.5 hPa | - | - | - | - |
| 1777458609 | 10.56° C | 36% | 1026.9 hPa | - | - | - | - |
| 1777458307 | 10.56° C | 37% | 1026.7 hPa | - | - | - | - |
| 1777458008 | 10° C | 37% | 1027 hPa | - | - | - | - |
| 1777457708 | 10° C | 35% | 1027.2 hPa | - | - | - | - |
| 1777457409 | 10° C | 36% | 1026.9 hPa | - | - | - | - |
| 1777457108 | 10° C | 37% | 1026.9 hPa | - | - | - | - |
| 1777456808 | 10.56° C | 35% | 1027 hPa | - | - | - | - |
| 1777456507 | 9.44° C | 36% | 1026.9 hPa | - | - | - | - |
| 1777456208 | 10° C | 37% | 1027.1 hPa | - | - | - | - |
| 1777455908 | 9.44° C | 37% | 1026.9 hPa | - | - | - | - |
| 1777455608 | 9.44° C | 36% | 1026.9 hPa | - | - | - | - |
| 1777455307 | 10° C | 35% | 1027 hPa | - | - | - | - |
| 1777455009 | 10.56° C | 36% | 1027.1 hPa | - | - | - | - |
| 1777454707 | 10° C | 36% | 1027.1 hPa | - | - | - | - |
| 1777454408 | 10° C | 35% | 1026.9 hPa | - | - | - | - |
| 1777454108 | 10° C | 35% | 1027 hPa | - | - | - | - |
| 1777453807 | 10° C | 36% | 1027 hPa | - | - | - | - |
| 1777453509 | 9.44° C | 36% | 1027.2 hPa | - | - | - | - |
* Rain since midnight (hover to see other rain measurements)
** Current wind speed in m/s (hover to see current wind gust speed)